PHGFA ENBR-ENCN

Flight info

Callsign PHGFA
Flight time 1h 0m
Altitude 15000
Route TUXIL DCT PEVEB
Aircraft B58T/L-SDFGRY/C

Departure

Time 2026-05-01 10:54
Airport Bergen Airport, Flesland (ENBR)

Arrival

Time 2026-05-01 11:54
Airport Kristiansand Airport (ENCN)
Time Latitude Longitude Altitude Speed Heading
2026-05-01 10:33 60.29934 5.22624 140 ft 0 kts 120°
2026-05-01 10:49 60.29929 5.22636 139 ft 5 kts 139°
2026-05-01 10:49 60.29874 5.22655 138 ft 11 kts 204°
2026-05-01 10:49 60.29814 5.22581 142 ft 11 kts 219°
2026-05-01 10:49 60.29761 5.22435 142 ft 15 kts 249°
2026-05-01 10:50 60.29742 5.22235 141 ft 15 kts 262°
2026-05-01 10:50 60.29730 5.22051 142 ft 12 kts 263°
2026-05-01 10:50 60.29720 5.21898 143 ft 8 kts 260°
2026-05-01 10:50 60.29719 5.21878 143 ft 0 kts 259°
2026-05-01 10:53 60.29714 5.21826 141 ft 10 kts 262°
2026-05-01 10:53 60.29672 5.21709 140 ft 11 kts 180°
2026-05-01 10:53 60.29604 5.21729 141 ft 18 kts 171°
2026-05-01 10:54 60.29216 5.21838 211 ft 81 kts 173°
2026-05-01 10:54 60.28600 5.21977 515 ft 97 kts 172°
2026-05-01 10:54 60.27906 5.22127 901 ft 103 kts 171°
2026-05-01 10:54 60.27160 5.22357 1373 ft 113 kts 172°
2026-05-01 10:55 60.26378 5.22586 1904 ft 112 kts 172°
2026-05-01 10:55 60.25626 5.22885 2420 ft 114 kts 172°
2026-05-01 10:55 60.24810 5.23226 2767 ft 125 kts 173°
2026-05-01 10:55 60.23939 5.23567 3128 ft 130 kts 173°
2026-05-01 10:56 60.23032 5.23902 3497 ft 135 kts 174°
2026-05-01 10:56 60.22097 5.24229 3860 ft 138 kts 175°
2026-05-01 10:56 60.21141 5.24557 4209 ft 140 kts 175°
2026-05-01 10:56 60.20174 5.24881 4574 ft 141 kts 176°
2026-05-01 10:57 60.19207 5.25206 4957 ft 141 kts 178°
2026-05-01 10:57 60.18243 5.25530 5329 ft 141 kts 179°
2026-05-01 10:57 60.17277 5.25852 5703 ft 141 kts 179°
2026-05-01 10:57 60.16323 5.26170 6077 ft 141 kts 180°
2026-05-01 10:58 60.15349 5.26494 6472 ft 142 kts 181°
2026-05-01 10:58 60.14367 5.26819 6850 ft 144 kts 182°
2026-05-01 10:58 60.13378 5.27149 7217 ft 145 kts 182°
2026-05-01 10:58 60.12381 5.27480 7590 ft 146 kts 182°
2026-05-01 10:59 60.11380 5.27813 7965 ft 146 kts 182°
2026-05-01 10:59 60.10372 5.28149 8345 ft 147 kts 182°
2026-05-01 10:59 60.09361 5.28485 8725 ft 148 kts 182°
2026-05-01 10:59 60.08362 5.28791 9115 ft 147 kts 184°
2026-05-01 11:00 60.07363 5.29055 9498 ft 140 kts 185°
2026-05-01 11:00 60.06429 5.29316 9861 ft 131 kts 185°
2026-05-01 11:00 60.05556 5.29560 10215 ft 122 kts 186°
2026-05-01 11:00 60.04735 5.29776 10473 ft 118 kts 187°
2026-05-01 11:01 60.03919 5.29982 10701 ft 117 kts 186°
2026-05-01 11:01 60.03116 5.30190 10934 ft 115 kts 187°
2026-05-01 11:01 60.02320 5.30401 11208 ft 116 kts 187°
2026-05-01 11:01 60.01525 5.30604 11455 ft 118 kts 187°
2026-05-01 11:02 60.00702 5.30813 11718 ft 121 kts 187°
2026-05-01 11:02 59.99858 5.31034 11980 ft 124 kts 187°
2026-05-01 11:02 59.98997 5.31261 12236 ft 126 kts 187°
2026-05-01 11:02 59.98119 5.31495 12495 ft 128 kts 187°
2026-05-01 11:03 59.97227 5.31733 12756 ft 131 kts 187°
2026-05-01 11:03 59.96319 5.31977 13017 ft 132 kts 187°
2026-05-01 11:03 59.95401 5.32222 13285 ft 134 kts 187°
2026-05-01 11:03 59.94472 5.32466 13522 ft 140 kts 187°
2026-05-01 11:04 59.93482 5.32718 13686 ft 147 kts 186°
2026-05-01 11:04 59.92450 5.32989 13848 ft 152 kts 186°
2026-05-01 11:04 59.91388 5.33272 14008 ft 156 kts 185°
2026-05-01 11:04 59.90303 5.33566 14157 ft 159 kts 185°
2026-05-01 11:05 59.89200 5.33861 14295 ft 161 kts 185°
2026-05-01 11:05 59.88082 5.34163 14441 ft 164 kts 185°
2026-05-01 11:05 59.86947 5.34466 14582 ft 165 kts 185°
2026-05-01 11:05 59.85801 5.34774 14721 ft 167 kts 185°
2026-05-01 11:06 59.84663 5.35078 14863 ft 167 kts 185°
2026-05-01 11:06 59.83507 5.35386 15008 ft 168 kts 185°
2026-05-01 11:06 59.82345 5.35694 15154 ft 169 kts 185°
2026-05-01 11:07 59.79963 5.36313 15262 ft 178 kts 184°
2026-05-01 11:07 59.78715 5.36576 15271 ft 182 kts 186°
2026-05-01 11:07 59.77442 5.36769 15252 ft 185 kts 186°
2026-05-01 11:07 59.76147 5.36964 15257 ft 187 kts 186°
2026-05-01 11:08 59.74847 5.37168 15258 ft 188 kts 186°
2026-05-01 11:08 59.73559 5.37376 15262 ft 189 kts 186°
2026-05-01 11:08 59.70945 5.37809 15274 ft 189 kts 186°
2026-05-01 11:09 59.69636 5.38024 15275 ft 189 kts 186°
2026-05-01 11:09 59.68325 5.38240 15276 ft 189 kts 186°
2026-05-01 11:09 59.67012 5.38456 15277 ft 189 kts 186°
2026-05-01 11:10 59.64386 5.38889 15280 ft 190 kts 185°
2026-05-01 11:10 59.63064 5.39186 15281 ft 192 kts 183°
2026-05-01 11:10 59.61739 5.39546 15278 ft 192 kts 183°
2026-05-01 11:10 59.60411 5.39907 15272 ft 192 kts 183°
2026-05-01 11:11 59.59109 5.40253 15264 ft 191 kts 183°
2026-05-01 11:11 59.57793 5.40594 15280 ft 191 kts 183°
2026-05-01 11:11 59.56475 5.40932 15270 ft 191 kts 183°
2026-05-01 11:11 59.55158 5.41267 15276 ft 191 kts 183°
2026-05-01 11:12 59.53841 5.41600 15283 ft 191 kts 183°
2026-05-01 11:12 59.52521 5.41933 15286 ft 192 kts 183°
2026-05-01 11:12 59.51194 5.42267 15280 ft 192 kts 183°
2026-05-01 11:12 59.49866 5.42601 15278 ft 192 kts 183°
2026-05-01 11:13 59.48559 5.42933 15259 ft 192 kts 183°
2026-05-01 11:13 59.47240 5.43268 15270 ft 191 kts 183°
2026-05-01 11:13 59.45927 5.43599 15259 ft 190 kts 183°
2026-05-01 11:13 59.44618 5.43930 15281 ft 190 kts 183°
2026-05-01 11:14 59.43310 5.44255 15281 ft 190 kts 183°
2026-05-01 11:14 59.41997 5.44585 15282 ft 190 kts 183°
2026-05-01 11:14 59.40680 5.45003 15281 ft 196 kts 175°
2026-05-01 11:14 59.39431 5.46286 15280 ft 213 kts 152°
2026-05-01 11:15 59.38301 5.48186 15277 ft 213 kts 152°
2026-05-01 11:15 59.37161 5.49969 15284 ft 213 kts 153°
2026-05-01 11:15 59.36696 5.50679 15282 ft 213 kts 153°
2026-05-01 11:15 59.35524 5.52448 15280 ft 213 kts 154°
2026-05-01 11:16 59.34352 5.54218 15277 ft 213 kts 153°
2026-05-01 11:16 59.33182 5.56001 15280 ft 213 kts 153°
2026-05-01 11:16 59.32016 5.57788 15276 ft 213 kts 153°
2026-05-01 11:16 59.30854 5.59576 15269 ft 212 kts 153°
2026-05-01 11:17 59.29697 5.61357 15280 ft 211 kts 153°
2026-05-01 11:17 59.28557 5.63111 15291 ft 211 kts 153°
2026-05-01 11:17 59.27401 5.64888 15293 ft 212 kts 153°
2026-05-01 11:17 59.26240 5.66669 15292 ft 212 kts 153°
2026-05-01 11:18 59.25077 5.68451 15293 ft 213 kts 153°
2026-05-01 11:18 59.23913 5.70236 15296 ft 213 kts 153°
2026-05-01 11:18 59.22750 5.72016 15294 ft 212 kts 153°
2026-05-01 11:18 59.21589 5.73793 15294 ft 212 kts 153°
2026-05-01 11:19 59.20424 5.75575 15291 ft 212 kts 153°
2026-05-01 11:19 59.19261 5.77350 15291 ft 212 kts 153°
2026-05-01 11:19 59.18116 5.79098 15280 ft 211 kts 153°
2026-05-01 11:19 59.16959 5.80865 15287 ft 211 kts 153°
2026-05-01 11:20 59.15806 5.82622 15287 ft 210 kts 153°
2026-05-01 11:20 59.14656 5.84373 15284 ft 209 kts 153°
2026-05-01 11:20 59.13509 5.86117 15290 ft 209 kts 153°
2026-05-01 11:20 59.12362 5.87860 15293 ft 209 kts 153°
2026-05-01 11:21 59.11211 5.89606 15299 ft 210 kts 153°
2026-05-01 11:21 59.10060 5.91348 15296 ft 210 kts 153°
2026-05-01 11:21 59.08925 5.93068 15296 ft 210 kts 153°
2026-05-01 11:21 59.07772 5.94809 15301 ft 210 kts 153°
2026-05-01 11:22 59.06612 5.96562 15301 ft 211 kts 153°
2026-05-01 11:22 59.05450 5.98317 15292 ft 212 kts 153°
2026-05-01 11:22 59.04294 6.00067 15287 ft 210 kts 153°
2026-05-01 11:22 59.03139 6.01810 15296 ft 210 kts 153°
2026-05-01 11:23 59.01983 6.03553 15301 ft 211 kts 153°
2026-05-01 11:23 59.00823 6.05298 15300 ft 211 kts 153°
2026-05-01 11:23 58.99660 6.07046 15301 ft 211 kts 153°
2026-05-01 11:23 58.98515 6.08768 15294 ft 211 kts 153°
2026-05-01 11:24 58.97358 6.10504 15303 ft 211 kts 153°
2026-05-01 11:24 58.96195 6.12249 15313 ft 212 kts 153°
2026-05-01 11:24 58.93858 6.15754 15295 ft 212 kts 153°
2026-05-01 11:25 58.92697 6.17497 15284 ft 211 kts 153°
2026-05-01 11:25 58.90379 6.20961 15298 ft 211 kts 153°
2026-05-01 11:25 58.89221 6.22689 15301 ft 211 kts 153°
2026-05-01 11:26 58.88076 6.24394 15302 ft 211 kts 153°
2026-05-01 11:26 58.85788 6.27807 15302 ft 206 kts 153°
2026-05-01 11:26 58.84652 6.29502 15319 ft 207 kts 153°
2026-05-01 11:27 58.83502 6.31205 15283 ft 207 kts 153°
2026-05-01 11:27 58.82368 6.32891 15291 ft 206 kts 154°
2026-05-01 11:27 58.81233 6.34577 15306 ft 206 kts 154°
2026-05-01 11:27 58.80091 6.36267 15312 ft 207 kts 154°
2026-05-01 11:28 58.78959 6.37939 15309 ft 208 kts 154°
2026-05-01 11:28 58.77809 6.39639 15310 ft 209 kts 154°
2026-05-01 11:28 58.76651 6.41350 15313 ft 210 kts 154°
2026-05-01 11:29 58.74334 6.44770 15306 ft 210 kts 154°
2026-05-01 11:29 58.73174 6.46484 15306 ft 210 kts 154°
2026-05-01 11:29 58.70854 6.49902 15301 ft 210 kts 154°
2026-05-01 11:30 58.69697 6.51602 15299 ft 209 kts 155°
2026-05-01 11:30 58.68541 6.53185 15336 ft 206 kts 156°
2026-05-01 11:30 58.67377 6.54832 15327 ft 209 kts 154°
2026-05-01 11:30 58.66221 6.56548 15320 ft 211 kts 153°
2026-05-01 11:31 58.65064 6.58288 15312 ft 211 kts 153°
2026-05-01 11:31 58.63905 6.60027 15320 ft 212 kts 153°
2026-05-01 11:31 58.62741 6.61764 15314 ft 212 kts 154°
2026-05-01 11:31 58.61576 6.63488 15309 ft 211 kts 154°
2026-05-01 11:32 58.60415 6.65196 15305 ft 210 kts 154°
2026-05-01 11:32 58.59258 6.66894 15308 ft 209 kts 154°
2026-05-01 11:32 58.58100 6.68587 15317 ft 210 kts 154°
2026-05-01 11:32 58.56953 6.70257 15311 ft 210 kts 154°
2026-05-01 11:33 58.55791 6.71950 15315 ft 210 kts 154°
2026-05-01 11:33 58.54630 6.73641 15316 ft 210 kts 154°
2026-05-01 11:33 58.53461 6.75338 15321 ft 211 kts 154°
2026-05-01 11:33 58.52289 6.77040 15313 ft 212 kts 154°
2026-05-01 11:34 58.51123 6.78754 15312 ft 213 kts 151°
2026-05-01 11:34 58.50119 6.80926 15313 ft 225 kts 133°
2026-05-01 11:34 58.49502 6.83713 15319 ft 239 kts 111°
2026-05-01 11:34 58.49303 6.86907 15320 ft 242 kts 104°
2026-05-01 11:35 58.49070 6.90092 15265 ft 243 kts 107°
2026-05-01 11:35 58.48824 6.93184 15213 ft 230 kts 107°
2026-05-01 11:35 58.48589 6.96153 15123 ft 226 kts 107°
2026-05-01 11:35 58.48352 6.99153 14883 ft 230 kts 107°
2026-05-01 11:36 58.48117 7.02190 14630 ft 232 kts 107°
2026-05-01 11:36 58.47884 7.05260 14378 ft 234 kts 107°
2026-05-01 11:36 58.47651 7.08350 14119 ft 235 kts 107°
2026-05-01 11:36 58.47417 7.11449 13809 ft 236 kts 107°
2026-05-01 11:37 58.47186 7.14507 13471 ft 235 kts 106°
2026-05-01 11:37 58.46954 7.17588 13154 ft 234 kts 106°
2026-05-01 11:37 58.46721 7.20653 12832 ft 232 kts 106°
2026-05-01 11:37 58.46487 7.23705 12545 ft 232 kts 107°
2026-05-01 11:38 58.46252 7.26758 12257 ft 233 kts 106°
2026-05-01 11:38 58.46017 7.29816 11963 ft 232 kts 106°
2026-05-01 11:38 58.45783 7.32853 11668 ft 230 kts 106°
2026-05-01 11:38 58.45553 7.35840 11386 ft 226 kts 106°
2026-05-01 11:39 58.45324 7.38793 11135 ft 224 kts 106°
2026-05-01 11:39 58.45099 7.41683 10879 ft 222 kts 106°
2026-05-01 11:39 58.44872 7.44582 10620 ft 221 kts 106°
2026-05-01 11:39 58.44645 7.47477 10378 ft 219 kts 106°
2026-05-01 11:40 58.44382 7.50326 10101 ft 216 kts 109°
2026-05-01 11:40 58.44025 7.53085 9849 ft 214 kts 113°
2026-05-01 11:40 58.43643 7.55837 9606 ft 215 kts 112°
2026-05-01 11:40 58.43262 7.58597 9329 ft 215 kts 112°
2026-05-01 11:41 58.42881 7.61357 9077 ft 215 kts 112°
2026-05-01 11:41 58.42501 7.64116 8834 ft 215 kts 112°
2026-05-01 11:41 58.42127 7.66823 8578 ft 214 kts 112°
2026-05-01 11:41 58.41749 7.69560 8324 ft 213 kts 112°
2026-05-01 11:42 58.41372 7.72278 8108 ft 211 kts 112°
2026-05-01 11:42 58.40999 7.74963 7906 ft 208 kts 112°
2026-05-01 11:42 58.40628 7.77623 7708 ft 207 kts 112°
2026-05-01 11:42 58.40261 7.80260 7511 ft 205 kts 112°
2026-05-01 11:43 58.39901 7.82888 7310 ft 205 kts 109°
2026-05-01 11:43 58.39868 7.85640 7109 ft 212 kts 83°
2026-05-01 11:43 58.40403 7.88224 6872 ft 215 kts 57°
2026-05-01 11:44 58.42685 7.91757 6359 ft 213 kts 31°
2026-05-01 11:44 58.43899 7.93393 6133 ft 214 kts 32°
2026-05-01 11:44 58.45115 7.95047 5897 ft 214 kts 32°
2026-05-01 11:44 58.46285 7.96807 5638 ft 216 kts 45°
2026-05-01 11:45 58.47084 7.99223 5374 ft 215 kts 72°
2026-05-01 11:45 58.47347 8.01948 5111 ft 205 kts 103°
2026-05-01 11:45 58.46841 8.04349 4866 ft 191 kts 131°
2026-05-01 11:45 58.46105 8.06438 4605 ft 189 kts 133°
2026-05-01 11:46 58.45368 8.08516 4371 ft 190 kts 131°
2026-05-01 11:46 58.44654 8.10613 4122 ft 191 kts 130°
2026-05-01 11:46 58.43944 8.12754 3880 ft 192 kts 130°
2026-05-01 11:46 58.43234 8.14928 3628 ft 194 kts 128°
2026-05-01 11:47 58.42527 8.17134 3416 ft 196 kts 127°
2026-05-01 11:47 58.41800 8.19337 3127 ft 196 kts 131°
2026-05-01 11:47 58.40992 8.21359 3029 ft 185 kts 132°
2026-05-01 11:47 58.40268 8.23333 3000 ft 180 kts 131°
2026-05-01 11:48 58.39571 8.25272 2979 ft 175 kts 131°
2026-05-01 11:48 58.38890 8.27163 2977 ft 171 kts 131°
2026-05-01 11:48 58.38101 8.28724 2982 ft 161 kts 156°
2026-05-01 11:48 58.37089 8.29379 2973 ft 149 kts 183°
2026-05-01 11:49 58.36133 8.29053 2968 ft 136 kts 214°
2026-05-01 11:49 58.35316 8.28157 2987 ft 135 kts 214°
2026-05-01 11:49 58.34511 8.27234 2997 ft 135 kts 215°
2026-05-01 11:49 58.33707 8.26275 3001 ft 137 kts 216°
2026-05-01 11:50 58.32902 8.25289 2994 ft 138 kts 218°
2026-05-01 11:50 58.32112 8.24240 3004 ft 138 kts 220°
2026-05-01 11:50 58.31335 8.23142 2978 ft 141 kts 221°
2026-05-01 11:50 58.30548 8.21978 2728 ft 149 kts 220°
2026-05-01 11:51 58.29704 8.20794 2439 ft 153 kts 218°
2026-05-01 11:51 58.28835 8.19672 2251 ft 145 kts 217°
2026-05-01 11:51 58.28036 8.18669 2055 ft 132 kts 218°
2026-05-01 11:51 58.27303 8.17718 1843 ft 124 kts 218°
2026-05-01 11:52 58.26622 8.16814 1665 ft 115 kts 219°
2026-05-01 11:52 58.26024 8.16014 1453 ft 92 kts 220°
2026-05-01 11:52 58.25531 8.15291 1279 ft 93 kts 219°
2026-05-01 11:52 58.24993 8.14534 1198 ft 98 kts 216°
2026-05-01 11:53 58.24426 8.13819 1068 ft 102 kts 214°
2026-05-01 11:53 58.23834 8.13048 909 ft 106 kts 214°
2026-05-01 11:53 58.23248 8.12272 729 ft 102 kts 213°
2026-05-01 11:53 58.22657 8.11486 538 ft 106 kts 211°
2026-05-01 11:54 58.22078 8.10740 404 ft 93 kts 209°
2026-05-01 11:54 58.21574 8.10070 215 ft 86 kts 212°
2026-05-01 11:54 58.21082 8.09423 80 ft 83 kts 211°
2026-05-01 11:54 58.20714 8.08934 58 ft 46 kts 215°
2026-05-01 11:55 58.20566 8.08669 61 ft 14 kts 265°
2026-05-01 11:55 58.20556 8.08528 61 ft 9 kts 262°
2026-05-01 11:55 58.20546 8.08417 57 ft 8 kts 258°
2026-05-01 11:55 58.20539 8.08320 61 ft 7 kts 262°
2026-05-01 11:56 58.20515 8.08258 57 ft 6 kts 225°
2026-05-01 11:56 58.20488 8.08189 61 ft 8 kts 231°
2026-05-01 11:56 58.20443 8.08085 61 ft 12 kts 232°
2026-05-01 11:56 58.20386 8.07947 61 ft 14 kts 231°
2026-05-01 11:57 58.20321 8.07788 61 ft 16 kts 232°
2026-05-01 11:57 58.20267 8.07694 61 ft 16 kts 212°
2026-05-01 11:57 58.20165 8.07637 56 ft 11 kts 125°
2026-05-01 11:57 58.20124 8.07742 61 ft 0 kts 122°